GFSFLT2_con_3kmhel_336.txt.gz
Helicity
101 81 83 84 62 52 40 41 42 41 34 34 33 32 36 39 38 42 50 65 82 97 125 139 145 153 114 112 85 116 68 20
101 78 72 65 51 51 46 41 31 23 22 24 23 24 35 51 53 52 62 64 72 89 95 100 93 48 58 111 105 111 50 24
80 59 52 57 59 48 53 40 24 14 3 3 -5 -10 9 21 46 57 71 58 59 75 74 48 -7 -39 8 61 51 -5 14 1
76 61 53 41 52 25 31 17 -8 -25 -38 -68 -75 -2 11 67 63 76 62 41 35 28 24 10 -5 -55 -68 -2 12 39 16 18
64 52 45 25 74 11 8 -27 -37 -30 -26 -41 -38 80 58 59 55 47 30 35 10 -0 -8 -22 -13 -25 46 -7 22 103 84 65
85 67 59 117 26 -17 -2 -66 -53 -23 -4 3 45 60 64 44 36 21 5 -13 -16 -14 26 106 143 168 188 147 146 100 68 73
89 99 71 82 5 -52 -8 -64 -3 27 52 25 57 51 36 39 21 5 11 13 42 121 131 128 106 117 160 163 119 74 88 69
73 79 81 84 33 96 131 97 118 167 94 42 20 34 44 26 25 38 62 58 85 77 90 86 74 78 94 75 66 47 48 26
87 104 79 97 121 132 131 96 49 46 68 36 26 17 40 36 66 93 133 148 102 102 123 68 62 68 83 64 45 26 -15 39
109 112 104 70 120 121 106 92 35 124 31 39 28 46 76 58 85 117 138 109 66 85 82 58 18 -14 -16 34 64 63 36 37
96 123 122 106 136 59 132 84 85 94 61 51 54 61 46 67 71 84 69 56 51 99 56 18 2 36 65 47 25 12 24 22
86 159 157 136 113 101 145 115 133 128 58 50 68 70 71 115 119 58 40 51 29 87 65 22 42 35 85 90 39 29 -15 1
168 247 171 169 132 173 109 118 112 94 114 67 66 70 81 131 141 75 49 55 57 92 52 101 98 138 75 38 18 -3 16 2
278 248 173 141 123 104 87 102 87 118 99 82 102 64 72 86 80 37 53 129 136 98 90 105 110 32 28 20 32 3 -17 23
279 245 184 139 112 82 94 137 167 146 108 96 79 66 52 54 48 9 58 141 146 146 109 133 62 -42 -19 49 37 46 37 22
261 243 206 148 74 116 173 178 135 91 83 102 81 78 75 54 38 43 111 144 151 111 75 33 52 17 -27 -7 25 23 10 38
297 266 242 105 47 198 180 125 103 105 146 115 99 87 62 49 56 94 149 155 115 70 29 22 34 41 26 18 19 17 27 35
273 225 189 64 145 184 136 109 157 158 134 113 118 100 84 61 70 111 114 128 90 52 57 36 41 30 29 23 33 33 21 46
185 233 217 133 153 163 88 182 136 135 103 102 117 104 88 98 112 121 70 112 77 86 78 62 55 53 70 55 37 29 48 42
139 136 30 75 184 130 139 187 151 116 78 98 99 77 83 91 117 101 93 151 102 101 80 66 56 70 69 78 76 52 51 71

GFSFLT2_con_3kmhel_339.txt.gz
Helicity
105 76 54 57 68 58 45 35 25 17 15 19 24 37 51 45 47 51 60 72 88 114 125 135 148 142 141 146 136 104 41 13
132 102 89 77 54 53 43 29 15 7 8 19 34 43 40 42 42 45 61 54 78 90 97 118 105 126 130 115 102 81 27 8
147 116 102 97 75 44 37 25 5 -1 -1 9 21 8 19 27 36 48 49 42 62 55 32 34 20 34 66 77 64 42 38 15
143 117 105 81 59 37 22 0 -30 -35 -39 -29 -17 0 11 25 49 45 40 38 37 29 9 -12 7 24 96 115 33 59 56 46
116 104 92 78 55 25 8 -30 -47 -36 -46 -80 -34 15 41 35 42 25 29 19 -11 -11 22 -12 -2 45 130 83 75 71 57 55
103 80 76 81 39 7 -22 -49 -65 -36 -57 -63 49 48 50 43 37 13 2 -26 -13 23 65 153 167 183 196 114 70 65 68 48
100 78 72 54 14 -15 -50 -98 -72 -5 -22 -20 55 51 32 46 27 5 -4 -5 42 113 137 199 255 275 165 115 50 65 81 18
106 112 72 37 11 -4 -13 -51 -22 16 8 9 65 38 53 50 18 -14 34 73 148 146 138 216 237 190 129 22 -3 46 46 22
106 124 48 69 54 79 65 73 108 106 43 45 69 49 40 59 55 48 64 103 229 171 147 189 249 134 6 -4 35 50 24 3
127 103 91 137 157 142 132 127 142 105 83 76 70 58 67 123 119 130 118 192 203 151 137 128 114 57 58 41 28 23 13 5
153 142 124 186 156 166 133 150 117 86 67 85 81 63 73 110 132 119 114 171 182 127 85 71 50 49 86 65 64 8 -6 -46
180 161 172 194 206 199 161 201 135 103 84 117 122 95 98 125 107 87 92 101 162 106 60 20 18 73 81 74 47 26 8 2
174 218 189 209 260 256 251 225 187 123 104 109 101 82 133 162 101 64 61 112 177 123 46 60 56 111 112 73 46 0 -2 16
215 245 222 206 297 234 219 224 203 127 114 110 72 64 146 161 123 62 39 119 156 121 106 110 119 92 97 82 71 26 15 30
239 267 240 253 266 198 213 237 218 185 173 140 84 60 136 119 91 96 102 162 147 158 195 152 99 38 -30 80 74 58 35 24
280 278 241 235 236 188 200 215 237 144 168 131 90 64 102 78 102 119 164 201 214 174 173 107 73 35 -19 23 25 62 40 39
367 284 255 235 202 193 224 230 206 172 168 138 106 76 84 73 121 115 172 189 186 183 140 70 48 20 14 33 41 33 23 44
337 280 270 241 251 260 239 211 183 176 164 129 103 77 101 111 115 116 153 155 147 123 86 68 46 38 40 43 70 59 57 47
284 272 258 268 260 246 212 189 188 168 159 137 107 93 110 116 137 158 153 109 101 95 63 57 56 45 70 78 83 63 63 57
281 249 210 283 298 205 222 197 201 177 163 125 87 88 116 129 145 169 140 109 94 84 76 63 83 87 116 110 73 68 67 87

GFSFLT2_con_3kmhel_342.txt.gz
Helicity
122 94 79 80 74 67 61 43 30 24 28 46 54 54 44 38 39 52 73 93 115 125 135 146 147 134 148 146 135 111 40 32
148 116 97 71 58 54 55 49 32 24 34 49 50 41 40 43 47 64 58 80 93 111 129 137 120 114 123 118 118 87 36 28
144 138 122 86 54 34 48 48 35 34 37 44 41 24 29 35 42 57 44 51 67 86 117 124 130 105 88 110 102 62 43 7
128 127 123 99 63 42 38 39 23 28 22 18 15 12 13 19 40 53 35 37 40 52 67 94 76 31 51 89 94 85 67 48
114 118 112 98 58 29 30 32 31 12 12 27 13 -2 27 26 35 28 32 35 33 48 74 85 77 53 56 54 89 77 68 91
140 101 106 78 61 18 16 34 28 2 -11 19 19 -1 8 18 15 18 3 6 50 39 61 149 134 99 73 53 45 24 42 49
137 112 82 71 54 11 18 19 -2 -28 -23 0 15 11 0 18 20 25 25 32 51 120 194 228 189 115 57 39 41 50 39 27
155 114 83 71 56 10 9 13 -33 -29 -6 12 43 39 15 27 38 42 54 48 107 135 189 246 186 100 41 40 62 61 23 13
183 109 93 68 37 -5 32 30 7 -22 1 15 40 71 31 31 59 58 92 146 190 214 250 244 177 75 37 44 60 54 19 -3
206 114 90 84 36 20 29 18 -1 23 35 15 53 75 64 43 71 105 169 198 212 225 221 201 121 45 57 53 53 33 -2 -10
186 126 117 109 51 60 42 61 71 73 81 88 108 113 96 80 99 142 224 232 217 205 182 156 74 45 76 62 31 17 -15 -21
218 195 119 134 122 120 139 109 93 105 95 95 131 125 126 117 126 196 257 247 213 162 156 131 80 96 83 50 -15 -38 -54 -54
181 197 153 187 195 199 185 182 159 150 114 118 110 113 131 136 126 166 234 246 168 129 129 117 84 121 147 137 83 24 -15 -15
200 211 218 226 246 284 244 245 191 150 130 112 145 137 119 140 135 161 227 211 174 122 108 108 92 83 133 144 74 50 20 13
243 216 239 243 293 358 341 312 288 176 142 118 150 143 111 128 127 155 166 181 145 99 109 148 107 49 79 75 79 49 70 11
246 251 277 300 309 332 359 351 276 200 138 92 121 144 111 126 126 140 149 131 140 115 130 158 122 57 -33 27 56 89 53 45
267 299 297 274 305 345 378 331 278 205 172 146 125 128 107 118 122 148 129 133 190 175 148 169 124 69 -4 48 62 94 55 51
113 271 319 276 300 317 300 298 264 208 181 169 125 120 126 133 115 94 103 177 215 172 149 138 110 60 36 34 68 86 46 47
241 262 329 310 290 304 247 263 248 230 156 163 151 126 151 131 140 105 123 182 182 168 147 105 101 85 37 17 48 81 68 60
293 311 298 269 318 243 242 254 205 170 163 142 127 99 146 145 115 104 133 149 149 174 132 108 78 73 46 44 63 65 76 86

GFSFLT2_con_3kmhel_345.txt.gz
Helicity
164 124 107 103 93 86 85 84 79 73 67 68 66 59 55 55 68 81 106 119 118 122 111 99 89 94 131 125 102 87 43 24
187 146 113 93 70 68 78 93 95 83 79 72 70 43 42 47 58 86 102 119 118 113 104 92 105 102 132 128 112 97 52 29
157 148 119 93 68 54 80 98 103 97 90 84 59 34 35 41 44 74 102 109 120 119 115 105 116 135 131 129 106 68 35 14
126 150 130 111 85 80 90 102 111 93 78 68 47 36 20 25 53 65 85 107 107 113 109 95 71 54 61 89 80 71 44 12
115 144 133 139 103 86 97 110 112 83 58 51 43 25 23 19 52 59 88 110 70 69 51 42 49 42 55 49 52 75 97 80
117 124 135 130 100 83 85 109 105 80 52 50 36 29 33 24 36 50 66 70 93 71 54 55 70 55 52 48 46 76 95 109
138 140 119 112 92 81 99 102 94 77 62 44 24 34 27 24 26 56 65 76 104 97 88 80 83 58 45 47 63 79 88 77
163 160 123 111 95 82 90 98 86 74 40 29 19 14 24 25 41 70 80 54 91 136 129 111 87 50 53 58 55 63 49 53
181 174 174 127 93 94 93 78 87 64 26 22 35 27 30 45 59 86 86 81 132 200 192 163 114 54 74 62 48 41 10 15
175 140 174 133 117 103 85 73 69 35 40 53 39 46 56 72 99 94 124 147 164 173 205 188 111 63 69 47 44 33 5 -6
213 110 137 158 144 125 90 82 69 34 38 45 41 56 62 99 138 137 170 212 183 174 201 198 116 62 62 39 39 27 2 -10
191 140 122 149 208 155 123 95 101 86 52 58 63 56 87 130 170 201 227 247 203 190 231 152 110 80 77 65 62 54 20 -3
201 176 112 179 250 199 140 109 106 90 66 75 87 78 98 151 185 226 253 238 197 226 201 175 106 113 163 164 116 67 24 -11
235 148 96 156 204 238 167 140 113 128 111 105 114 122 119 175 207 230 225 249 249 238 213 168 114 110 137 148 83 38 27 12
379 341 75 212 209 232 210 225 229 205 169 150 120 120 139 177 215 244 240 249 244 187 170 173 143 39 85 55 48 31 56 12
325 379 155 195 268 252 221 150 174 202 187 165 134 134 156 177 226 226 241 225 213 132 110 145 160 99 21 52 46 53 44 36
206 392 222 168 287 261 246 212 247 285 246 213 144 131 125 158 204 216 219 190 146 109 102 165 131 105 42 54 49 63 64 28
266 347 430 274 238 286 244 273 330 290 227 212 145 142 129 155 193 195 187 147 138 107 120 139 129 79 41 61 60 81 46 27
327 341 365 380 186 306 322 330 344 274 192 199 168 188 150 153 177 164 172 126 127 123 136 125 115 99 86 41 42 45 68 48
261 94 131 179 87 283 375 346 322 261 218 184 159 177 174 166 159 139 147 125 150 154 154 128 117 89 86 88 59 47 81 86

GFSFLT2_con_3kmhel_348.txt.gz
Helicity
72 64 74 104 120 127 120 128 127 119 109 96 87 79 64 65 102 124 108 88 77 79 78 84 92 100 110 118 85 51 15 24
110 92 91 101 99 111 117 132 135 128 120 102 103 62 52 82 111 113 93 79 81 82 86 92 105 115 107 95 79 63 26 42
125 101 94 94 100 97 117 128 146 143 127 122 120 53 60 69 98 111 94 90 92 99 100 106 126 119 101 90 54 19 22 30
137 107 110 119 116 114 111 118 132 125 135 98 76 65 59 71 101 98 96 99 99 101 97 83 67 51 51 62 42 40 38 17
147 111 127 151 144 126 124 118 131 113 113 100 67 68 68 105 91 89 79 94 74 67 48 40 56 60 63 52 69 81 80 51
145 132 128 178 171 135 119 131 128 118 96 74 77 65 67 87 97 80 67 39 52 53 52 54 75 72 54 75 85 106 114 97
168 147 122 202 173 130 108 118 123 100 91 62 62 61 68 87 91 95 45 48 64 67 67 67 74 61 52 69 87 105 102 89
189 171 138 188 164 120 115 135 135 109 90 60 47 51 73 86 103 98 61 67 69 69 63 65 61 48 51 58 78 85 71 72
176 177 158 147 138 127 139 149 140 114 81 58 50 53 76 94 107 108 88 97 110 131 108 98 75 50 74 76 64 55 44 42
192 180 180 147 131 184 187 156 138 113 92 76 51 51 79 106 120 104 118 128 145 144 134 124 89 65 58 60 50 33 30 27
198 166 178 166 182 202 205 161 134 129 95 79 52 52 75 113 123 102 132 145 159 176 141 139 92 71 81 66 61 33 23 22
311 265 161 224 213 209 219 199 125 125 87 72 82 54 61 97 148 147 157 187 187 187 191 120 102 108 110 93 74 48 36 23
304 255 192 239 237 200 196 190 131 95 72 81 68 82 91 99 166 203 175 187 194 216 216 205 147 160 186 128 84 62 48 37
289 225 293 273 172 181 187 164 172 113 102 89 59 85 105 124 176 200 208 248 244 238 232 226 135 118 123 101 57 39 34 26
290 293 291 355 225 160 209 222 206 226 132 94 50 89 122 148 168 216 243 265 248 236 244 238 167 46 93 47 40 26 52 14
297 340 268 173 239 130 155 194 180 200 138 99 83 119 139 177 195 216 242 242 239 225 228 193 205 116 34 31 19 49 36 35
370 283 225 149 124 168 272 195 197 254 252 157 133 138 133 204 244 242 229 238 213 222 187 171 167 154 105 67 63 53 42 23
362 331 344 256 248 202 208 256 230 288 276 197 169 153 178 195 234 226 223 233 242 183 161 158 145 111 85 53 60 41 30 25
341 407 328 307 322 320 236 184 243 265 294 237 229 200 178 192 205 210 195 193 183 160 162 127 124 120 106 37 29 42 65 48
270 338 371 336 335 376 281 189 226 260 324 294 255 221 203 194 185 182 179 168 167 142 130 103 95 86 88 66 39 37 53 66